Torna al catalogo

CICERO-1

AttivoScienzaSSO
NORAD 42843·PAYLOAD·🇺🇸 United States
Questo nome del satellite non è ancora stato confermato da fonti ufficiali.

Lanciato Jul 14, 2017 da Baikonur Cosmodrome

Loading…

Prossimi Passaggi (prossime 24 ore)

TLE

AggiornatoSource: Space-Track

Epoca: Sep 14, 2026, 03:45 UTC

1 42843U 17042U   26257.15662485  .00001493  00000-0  11943-3 0  9992
2 42843  97.4946  50.6422 0013371 130.4772 229.7621 15.01598550499976

Traccia CICERO-1 in tempo reale con AllMySat

Download on the App Store